記事タイトル:Comet C/2004 C1 (Larsen) 

最新の情報は「更新」や「再読み込み」ボタンを押してリロードしてご覧ください。

書き込み欄へ  ヘルプ
お名前: 佐藤 裕久   
J. A. Larsen (JPL)は、2月12.42日(UT)、0.9-m Spacewatch望遠鏡によるCCD画像から彗星
を発見した。NEOCPで公表され、J. Young (Table Mountain天文台, 0.6-m反射 + CCD)や
J. E. McGaha (Sabino Canyon天文台, 0.36-m SCT + CCD)によって6″のコマと5″〜14″の
太く短い扇型の尾が確認されている。

発見位置は次のとおり、

     2004 UT             R.A. (2000) Decl.       Mag.
     Feb. 12.42045   10 16 47.43   + 9 41 55.1   20.2

暫定放物線軌道と位置推算表は次のとおり、

Orbital elements:
    C/2004 C1 (Larsen)
T 2005 Oct. 12.503 TT                                   MPC
q   4.26365              (2000.0)            P               Q
                   Peri.   70.356       -0.544419       +0.739941
                   Node   151.630       -0.587324       -0.672544
e   1.0            Incl.   56.251       +0.598881       +0.013086
From 17 observations 2004 Feb. 12-13.

Ephemeris:
    C/2004 C1 (Larsen)
Date    TT    R. A. (2000) Decl.     Delta      r     Elong.  Phase   m1    m2
2004 02 05    10 19.68   +08 54.0    5.554    6.498   161.9     2.7        20.1
2004 02 15    10 15.74   +09 59.1    5.461    6.442   173.3     1.0        19.9
2004 02 25    10 11.51   +11 06.8    5.400    6.387   175.2     0.7        19.8
2004 03 06    10 07.28   +12 14.9    5.373    6.331   163.8     2.5        19.9
2004 03 16    10 03.34   +13 21.0    5.377    6.276   152.5     4.2        20.0
2004 03 26    09 59.94   +14 23.1    5.411    6.221   141.4     5.7        20.1

(IAUC 8286、MPEC 2004-C52)
[2004年2月14日 9時32分33秒]

この記事への返信をどうぞ。
氏名
E-mail URL



記事一覧に戻る